Probability
0 0 0 0 0 0 0 0 0 0 0 0 0 0 1 3 3 3 3 2 1 1 2 2 1 0 0 0 0 0 0 0 0 0 0 0 0 0 0 0 0 0 0
0 0 0 0 0 0 0 0 0 0 0 0 0 0 0 1 1 1 1 1 0 0 1 1 0 0 0 0 0 0 0 0 0 0 0 0 0 0 0 0 0 0 0
0 0 0 0 0 0 0 0 0 0 0 0 0 0 0 0 0 0 0 0 0 0 0 0 0 0 0 0 0 0 0 0 0 0 0 0 0 0 0 0 0 0 0
0 0 0 0 0 0 0 0 0 0 0 0 0 0 0 0 0 0 0 0 0 0 0 0 0 0 0 0 0 0 0 0 0 0 0 0 0 0 0 0 0 0 0
0 0 0 0 0 0 0 0 0 0 0 0 0 0 0 0 0 0 0 0 0 0 0 0 0 0 0 0 0 0 0 0 0 0 0 0 0 0 0 0 0 0 0
0 0 0 0 0 0 0 0 0 0 0 0 0 0 0 0 0 0 0 0 0 0 0 0 0 0 0 0 0 0 0 0 0 0 0 0 0 0 0 0 0 0 0
0 0 0 0 0 0 0 0 0 0 0 0 0 0 0 0 0 0 0 0 0 0 0 0 0 0 0 0 0 0 0 0 0 0 0 0 0 0 0 0 0 0 0
0 0 0 0 0 0 0 0 0 0 0 0 0 0 0 0 0 0 0 0 0 0 0 0 0 0 0 0 0 0 0 0 0 0 0 0 0 0 0 0 0 0 0
0 0 0 0 0 0 0 0 0 0 0 0 0 0 0 0 0 0 0 0 0 0 0 0 0 0 0 0 0 0 0 0 0 0 0 0 0 0 0 0 0 0 0
0 0 0 0 0 0 0 0 0 0 0 0 0 0 0 0 0 0 0 0 0 0 0 0 0 0 0 0 0 0 0 0 0 0 0 0 0 0 0 0 0 0 0
0 0 0 0 0 0 0 0 0 0 0 0 0 0 0 0 0 0 0 0 0 0 0 0 0 0 0 0 0 0 0 0 0 0 0 0 0 0 0 0 0 0 0
0 0 0 0 0 0 0 0 0 0 0 0 0 0 0 0 0 0 0 0 0 0 0 0 0 0 0 0 0 0 0 0 0 0 0 0 0 0 0 0 0 0 0
0 0 0 0 0 0 0 0 0 0 0 0 0 0 0 0 0 0 0 0 0 0 0 0 0 0 0 0 0 0 0 0 0 0 0 0 0 0 0 0 0 0 0
0 0 0 0 0 0 0 0 0 0 0 0 0 0 0 0 0 0 0 0 0 0 0 0 0 0 0 0 0 0 0 0 0 0 0 0 0 0 0 0 0 0 0
0 0 0 0 0 0 0 0 0 0 0 0 0 0 0 0 0 0 0 0 0 0 0 0 0 0 0 0 0 0 0 0 0 0 0 0 0 0 0 0 0 0 0
0 0 0 0 0 0 0 0 0 0 0 0 0 0 0 0 0 0 0 0 0 0 0 0 0 0 0 0 0 0 0 0 0 0 0 0 0 0 0 0 0 0 0
0 0 0 0 0 0 0 0 0 0 0 0 0 0 0 0 0 0 0 0 0 0 0 0 0 0 0 0 0 0 0 0 0 0 0 0 0 0 0 0 0 0 0
0 0 0 0 0 0 0 0 0 0 0 0 0 0 0 0 0 0 0 0 0 0 0 0 0 0 0 0 0 0 0 0 0 0 0 0 0 0 0 0 0 0 0
0 0 0 0 0 0 0 0 0 0 0 0 0 0 0 0 0 0 0 0 0 0 0 0 0 0 0 0 0 0 0 0 0 0 0 0 0 0 0 0 0 0 0
0 0 0 0 0 0 0 0 0 0 0 0 0 0 0 0 0 0 0 0 0 0 0 0 0 0 0 0 0 0 0 0 0 0 0 0 0 0 0 0 0 0 0
0 0 0 0 0 0 0 0 0 0 0 0 0 0 0 0 0 0 0 0 0 0 0 0 0 0 0 0 0 0 0 0 0 0 0 0 0 0 0 0 0 0 0
0 0 0 0 0 0 0 0 0 0 0 0 0 0 0 0 0 0 0 0 0 0 0 0 0 0 0 0 0 0 0 0 0 0 0 0 0 0 0 0 0 0 0
0 0 0 0 0 0 0 0 0 0 0 0 0 0 0 0 0 0 0 0 0 0 0 0 0 0 0 0 0 0 0 0 0 0 0 0 0 0 0 0 0 0 0
0 0 0 0 0 0 0 0 0 0 0 0 0 0 0 0 0 0 0 0 0 0 0 0 0 0 0 0 0 0 0 0 0 0 0 0 0 0 0 0 0 0 0
0 0 0 0 0 0 0 0 0 0 0 0 0 0 0 0 0 0 0 0 0 0 0 0 0 0 0 0 0 0 0 0 0 0 0 0 0 0 0 0 0 0 0
0 0 0 0 0 0 0 0 0 0 0 0 0 0 0 0 0 0 0 0 0 0 0 0 0 0 0 0 0 0 0 0 0 0 0 0 0 0 0 0 0 0 0
Wind_Speed
11 10 10 10 10 10 9 10 9 8 8 8 6 6 6 4 3 2 2 2 2 2 3 4 5 5 4 4 4 5 4 4 3 2 2 3 4 3 3 4 4 6 7
10 10 11 10 10 10 10 10 9 9 9 8 7 7 7 6 5 3 2 2 2 3 3 4 4 4 4 3 3 4 4 4 3 4 3 3 3 2 2 3 3 3 4
9 10 10 11 10 10 10 10 10 10 9 9 9 8 8 7 5 4 3 2 2 2 3 4 4 5 4 3 3 3 3 3 3 3 3 2 2 2 3 3 4 4 4
9 10 10 10 10 10 10 10 10 10 10 10 10 9 9 8 7 5 3 1 1 1 2 3 3 4 4 4 3 3 3 3 3 3 3 3 3 3 3 4 4 4 4
9 9 10 9 9 9 9 9 10 10 11 10 10 10 10 9 10 9 5 3 2 1 1 2 3 3 2 3 3 3 4 3 3 3 3 3 3 4 4 4 5 6 5
8 8 8 8 9 8 9 9 10 10 10 10 10 10 10 9 12 12 9 4 3 2 1 1 3 4 4 5 4 2 2 3 3 3 3 4 4 4 3 4 6 6 4
8 8 8 8 8 8 8 9 9 9 10 10 10 9 9 11 14 13 11 5 4 3 2 1 1 3 3 4 6 6 4 3 1 2 3 3 4 4 5 5 5 5 5
7 7 7 7 7 7 7 8 8 8 8 8 8 8 8 11 15 13 9 5 5 4 4 3 2 4 4 3 5 6 6 5 2 2 4 5 4 4 4 5 8 9 8
6 7 7 7 6 7 7 8 8 7 7 7 7 8 8 10 15 14 11 4 4 5 5 5 3 4 5 2 5 7 8 7 10 13 13 11 11 8 3 6 7 7 6
5 6 6 6 6 6 7 7 7 6 6 6 7 8 8 9 13 15 13 4 4 4 4 4 7 5 5 1 4 6 7 7 7 8 8 8 8 7 3 3 4 6 6
4 4 5 5 6 6 6 6 6 6 6 7 7 7 8 9 11 14 13 6 4 3 3 3 5 6 4 2 1 4 6 6 7 7 6 7 6 6 6 6 5 3 4
3 4 5 5 5 5 5 6 6 6 6 6 7 7 6 7 8 11 12 10 8 4 4 3 5 6 6 4 4 7 6 5 6 5 6 6 6 6 7 8 9 9 8
4 4 4 5 5 4 5 5 5 5 5 6 6 6 6 6 7 8 7 8 8 5 5 8 7 5 5 7 8 6 4 4 5 6 6 6 6 7 7 7 9 10 12
3 3 3 3 4 4 3 4 4 5 5 6 6 6 6 6 8 8 7 4 3 3 5 6 7 7 6 7 6 4 3 4 5 6 7 6 5 5 5 5 5 6 7
4 3 2 2 2 2 3 3 4 5 6 6 6 6 7 7 9 11 8 7 6 4 3 3 4 4 5 5 4 4 4 5 6 6 6 6 5 5 4 4 3 4 5
4 3 2 1 1 0 1 2 2 1 3 4 6 7 5 7 9 9 9 10 8 6 3 5 5 5 5 4 5 5 5 5 5 5 5 5 5 5 5 4 4 5 5
4 3 2 2 1 1 1 1 1 4 4 3 4 6 7 8 8 8 7 7 8 6 5 6 5 5 4 4 4 4 4 4 4 5 5 5 4 4 4 4 4 4 5
4 3 3 3 2 2 1 1 1 2 1 2 4 5 4 6 7 8 7 2 5 6 5 5 5 4 4 4 4 4 5 4 4 5 5 4 4 4 4 4 4 4 4
4 4 4 3 3 2 2 1 1 0 1 1 1 4 3 2 2 4 5 4 5 5 5 4 4 4 4 4 4 4 4 4 4 4 4 4 3 4 4 3 4 3 2
4 3 4 4 4 3 3 2 2 1 1 0 1 2 1 0 2 3 3 3 3 3 3 4 3 3 3 3 3 3 4 4 4 4 4 3 3 3 4 4 3 3 3
4 5 7 6 5 4 3 3 3 2 2 1 1 2 2 2 2 2 2 2 2 2 2 2 2 2 2 2 1 2 2 3 3 3 3 3 3 3 3 3 3 3 3
4 4 5 5 4 4 4 4 4 3 3 3 2 4 5 4 1 1 1 2 2 1 1 1 1 1 1 0 0 1 2 2 3 3 3 3 3 3 3 3 3 3 4
5 5 5 5 5 5 5 6 5 5 5 4 4 4 5 4 3 2 2 2 3 3 3 2 2 2 2 1 1 2 2 2 2 2 3 3 3 3 3 4 4 4 4
6 6 5 5 5 5 6 6 6 6 6 5 5 5 5 5 4 4 4 4 4 4 4 4 3 3 4 3 3 3 2 1 2 3 3 3 4 3 4 4 4 5 5
6 6 6 5 5 5 6 6 6 6 6 6 6 6 6 6 6 5 5 5 6 5 6 5 4 5 6 6 5 4 3 2 2 2 4 4 5 5 4 5 4 5 5
7 7 6 5 5 5 6 6 6 6 6 6 6 6 6 6 6 7 7 6 6 6 7 6 7 7 7 6 6 5 5 4 4 4 5 4 5 5 5 5 6 6 6
Wind_Direction
15 18 23 24 23 28 31 29 28 31 37 44 45 52 58 62 75 104 123 138 154 164 174 185 182 177 180 182 184 188 195 194 196 181 193 190 204 221 188 214 205 201 181
17 23 27 27 29 32 32 29 29 33 35 37 39 47 50 52 53 60 80 119 146 161 164 164 166 162 164 169 175 182 181 188 192 189 187 190 210 197 204 199 196 196 173
21 28 31 30 31 33 33 30 32 34 35 39 40 42 42 41 40 42 51 62 109 148 158 165 161 159 164 164 169 178 178 183 192 197 175 162 183 175 178 170 163 155 143
24 28 31 32 34 36 37 33 34 36 36 35 38 39 39 35 27 20 33 46 78 120 144 157 158 160 165 162 164 174 177 180 187 191 181 175 170 168 190 167 148 130 122
25 30 30 33 37 36 39 37 37 37 38 35 36 35 35 33 23 9 5 16 30 48 108 161 153 157 171 173 174 180 184 187 186 191 184 180 172 174 180 166 144 128 103
28 31 30 31 36 36 36 34 34 36 36 34 32 33 33 31 19 16 360 15 24 43 61 97 150 173 169 171 164 160 181 194 191 189 191 185 165 159 149 157 149 149 121
29 32 31 30 31 29 31 32 30 32 33 31 29 27 29 26 19 20 10 10 31 33 42 72 102 107 139 145 142 148 125 76 346 214 169 145 139 145 156 157 152 130 110
31 32 30 28 29 30 31 30 28 30 34 31 26 21 23 26 18 15 355 27 43 43 42 52 98 118 104 127 142 131 114 90 62 109 103 93 94 117 130 124 117 110 103
34 33 30 30 32 31 29 27 25 23 28 32 31 22 21 24 17 11 354 36 46 50 50 49 53 108 97 111 141 129 116 98 69 65 66 76 67 52 68 131 137 133 121
42 42 38 36 38 34 30 23 24 24 25 28 33 27 25 24 19 13 359 22 42 52 59 71 61 58 91 73 150 136 124 116 116 111 104 109 100 88 35 127 136 138 131
62 55 49 46 46 39 32 28 23 26 26 28 31 33 34 27 22 20 10 12 22 43 54 60 63 59 86 70 113 121 120 124 119 111 101 93 85 81 74 70 72 96 117
99 78 66 55 46 48 42 32 28 24 30 27 23 29 28 30 26 20 20 20 3 40 47 57 70 67 82 72 95 107 121 134 126 120 106 94 86 78 73 73 74 70 70
131 106 88 80 64 46 40 36 33 29 25 22 21 20 19 17 23 20 25 29 17 34 56 56 63 69 106 94 94 116 155 142 125 115 103 94 94 98 96 91 89 84 75
145 127 119 91 85 75 43 32 30 25 20 19 17 13 10 17 17 5 1 20 55 77 91 94 87 70 83 96 119 133 124 104 110 110 110 113 112 110 107 109 110 107 93
164 159 140 107 82 68 68 36 19 39 21 0 7 6 8 9 11 359 357 6 13 31 60 96 97 102 98 98 96 95 104 113 111 118 124 126 123 117 108 101 105 110 109
184 177 175 162 155 9 38 129 147 1 51 34 23 3 35 28 3 11 19 21 18 5 66 81 77 79 85 93 97 96 95 98 110 119 120 122 124 124 118 112 110 110 114
204 189 191 206 206 238 307 342 84 157 169 116 68 41 32 23 20 18 12 21 27 24 71 74 73 73 75 82 89 95 97 102 109 113 115 118 121 121 119 117 117 118 121
211 190 211 212 229 244 271 322 350 5 78 126 124 92 56 40 30 16 346 330 68 58 61 65 68 72 79 88 97 106 110 112 114 117 118 120 124 124 123 125 125 128 134
211 202 207 219 222 234 237 238 232 238 36 58 79 120 128 164 131 27 355 53 66 67 68 67 66 73 81 89 94 101 107 111 115 118 117 121 127 131 130 129 117 110 158
213 201 231 226 220 220 221 223 217 215 221 151 62 48 69 61 64 68 60 59 71 75 73 77 72 67 74 81 93 110 119 121 127 126 125 131 131 134 137 145 149 160 159
221 192 201 231 230 228 229 228 222 222 230 226 174 93 348 340 49 68 73 80 82 92 89 81 79 74 67 73 97 126 140 138 140 142 145 148 148 146 148 152 153 155 151
235 229 222 227 227 227 230 226 223 223 223 224 208 169 192 242 235 167 149 151 148 139 127 150 132 95 66 51 235 202 184 176 171 173 171 165 162 166 168 171 175 176 174
238 239 236 233 230 216 227 230 223 223 224 221 218 208 201 220 218 214 202 188 184 187 183 198 197 186 195 208 231 251 227 192 191 201 190 180 184 185 187 188 192 198 195
230 237 243 242 236 232 228 227 223 223 227 226 221 219 217 216 218 214 210 198 196 197 197 202 210 203 198 204 208 215 218 188 213 200 207 204 199 198 199 201 207 207 202
229 233 240 245 243 238 236 232 230 227 225 227 227 223 220 217 214 209 207 201 203 205 203 205 204 206 207 206 209 203 126 69 303 280 201 209 209 210 216 214 213 208 206
224 231 238 242 243 244 243 240 235 234 233 230 229 226 222 218 215 210 204 201 201 203 203 206 209 207 205 211 205 177 160 193 218 259 256 222 212 213 214 216 212 212 209